Location: Schommer Observatory
(40.5200°N, 74.4500°W)
Time: 07:13:06
(UTC-05:00)

ISS - Pass Details

Date: 16 November 2017
Orbit: 401 x 407 km, 51.6° (Epoch: 18 November)

Event Time Altitude Azimuth Distance (km) Brightness Sun altitude
Exits shadow 05:49:03 17° 290° (WNW) 1,089 -2.3 -10.9°
Maximum altitude 05:51:14 45° 222° (SW) 554 -3.4 -10.5°
Drops below altitude 10° 05:54:20 10° 148° (SSE) 1,445 -0.3 -10.0°
Sets 05:56:27 0° 142° (SE) 2,300 1.0 -9.6°
